Probability
0 0 0 0 0 0 0 0 0 0 0 0 0 0 0 0 0 0 0 0 0 0 0 0 0 0 0 0 0 1 2 1 1 2 2 2 1 0 0 0 1 1 1
0 0 0 0 0 0 0 0 0 0 0 0 0 0 0 0 0 0 0 0 0 0 0 0 0 0 0 0 0 1 2 1 1 2 2 1 0 0 0 1 2 2 2
0 0 0 0 0 0 0 0 0 0 0 0 0 0 0 0 0 0 0 0 0 0 0 0 0 1 1 1 1 2 2 1 1 1 1 0 0 0 0 1 2 3 3
0 0 0 0 0 0 0 0 0 0 0 0 0 0 0 0 0 0 0 0 0 0 0 0 0 1 2 2 1 2 2 1 0 0 0 0 0 0 0 1 3 3 3
0 0 0 0 0 0 0 0 0 0 0 0 0 0 0 0 0 0 0 0 0 0 0 0 0 0 1 2 2 3 3 2 1 0 0 0 0 0 0 2 3 3 3
0 0 0 0 0 0 0 0 0 0 0 0 0 0 0 0 0 0 0 0 0 0 0 0 0 0 0 1 2 3 3 2 1 0 0 0 0 0 1 2 3 3 3
0 0 0 0 0 0 0 0 0 0 0 0 0 0 0 0 0 0 0 0 0 0 0 0 0 0 0 0 1 2 3 2 1 0 1 1 0 0 1 3 3 3 3
0 0 0 0 0 0 0 0 0 0 0 0 0 0 0 0 0 0 0 0 0 0 0 0 0 0 0 0 0 1 2 2 1 0 1 2 2 2 3 3 3 3 3
0 0 0 0 0 0 0 0 0 0 0 0 0 0 0 0 0 0 0 0 0 0 0 0 0 0 0 0 0 0 1 1 0 0 1 3 4 5 4 4 3 3 3
0 0 0 0 0 0 0 0 0 0 0 0 0 0 0 0 0 0 0 0 0 0 0 0 0 0 0 0 0 0 0 0 0 1 1 2 3 4 5 4 3 3 3
0 0 0 0 0 0 0 0 0 0 0 0 0 0 0 0 0 0 0 0 0 0 0 0 0 0 0 0 0 0 0 0 0 1 1 1 1 2 3 3 3 3 3
0 0 0 0 0 0 0 0 0 0 0 0 0 0 0 0 0 0 0 0 0 0 0 0 0 0 0 0 0 0 0 0 0 0 0 0 0 1 2 3 3 3 3
0 0 0 0 0 0 0 0 0 0 0 0 0 0 0 0 0 0 0 0 0 0 0 0 0 0 0 0 0 0 0 0 0 0 0 0 0 0 1 2 3 3 3
0 0 0 0 0 0 0 0 0 0 0 0 0 0 0 0 0 0 0 0 0 0 0 0 0 0 0 0 0 0 0 0 0 0 0 0 0 0 0 1 2 2 2
0 0 0 0 0 0 0 0 0 0 0 0 0 0 0 0 0 0 0 0 0 0 0 0 0 0 0 0 0 0 0 0 0 0 0 0 0 0 0 0 1 1 1
0 0 0 0 0 0 0 0 0 0 0 0 0 0 0 0 0 0 0 0 0 0 0 0 0 0 0 0 0 0 0 0 0 0 0 0 0 0 0 0 0 0 0
0 0 0 0 0 0 0 0 0 0 0 0 0 0 0 0 0 0 0 0 0 0 0 0 0 0 0 0 0 0 0 0 0 0 0 0 0 0 0 0 0 0 0
0 0 0 0 0 0 0 0 0 0 0 0 0 0 0 0 0 0 0 0 0 0 0 0 0 0 0 0 0 0 0 0 0 0 0 0 0 0 0 0 0 0 0
0 0 0 0 0 0 0 0 0 0 0 0 0 0 0 0 0 0 0 0 0 0 0 0 0 0 0 0 0 0 0 0 0 0 0 0 0 0 0 0 0 0 0
0 0 0 0 0 0 0 0 0 0 0 0 0 0 0 0 0 0 0 0 0 0 0 0 0 0 0 0 0 0 0 0 0 0 0 0 0 0 0 0 0 0 0
0 0 0 0 0 0 0 0 0 0 0 0 0 0 0 0 0 0 0 0 0 0 0 0 0 0 0 0 0 0 0 0 0 0 0 0 0 0 0 0 0 0 0
0 0 0 0 0 0 0 0 0 0 0 0 0 0 0 0 0 0 0 0 0 0 0 0 0 0 0 0 0 0 0 0 0 0 0 0 0 0 0 0 0 0 0
0 0 0 0 0 0 0 0 0 0 0 0 0 0 0 0 0 0 0 0 0 0 0 0 0 0 0 0 0 0 0 0 0 0 0 0 0 0 0 0 0 0 0
0 0 0 0 0 0 0 0 0 0 0 0 0 0 0 0 0 0 0 0 0 0 0 0 0 0 0 0 0 0 0 0 0 0 0 0 0 0 0 0 0 0 0
0 0 0 0 0 0 0 0 0 0 0 0 0 0 0 0 0 0 0 0 0 0 0 0 0 0 0 0 0 0 0 0 0 0 0 0 0 0 0 0 0 0 0
0 0 0 0 0 0 0 0 0 0 0 0 0 0 0 0 0 0 0 0 0 0 0 0 0 0 0 0 0 0 0 0 0 0 0 0 0 0 0 0 0 0 0
Wind_Speed
2 2 2 2 2 2 3 3 3 4 4 5 5 5 5 5 4 4 3 8 9 9 10 9 10 10 10 10 10 10 10 10 10 9 9 9 8 8 8 8 8 8 8
2 2 2 2 2 2 2 3 3 3 3 3 4 5 4 4 4 4 4 5 9 8 8 8 8 9 9 9 9 10 9 9 9 9 9 8 8 7 7 7 7 7 7
3 2 2 2 2 2 3 3 3 3 3 4 4 4 4 4 4 4 4 3 4 7 8 8 8 8 8 8 8 8 8 8 8 8 8 7 7 7 7 6 6 6 6
2 2 2 2 2 2 3 3 3 3 3 3 3 3 3 3 4 4 4 4 3 3 5 7 7 7 7 6 7 7 7 7 7 7 7 7 7 7 7 6 6 6 5
2 2 2 2 2 2 2 3 3 3 3 3 3 3 2 2 3 3 4 4 3 3 3 5 7 6 6 6 6 6 5 6 6 6 6 6 6 6 6 5 5 5 5
2 2 2 2 2 2 2 3 3 3 3 3 4 3 2 2 2 2 2 2 3 3 3 3 3 3 5 5 5 5 5 5 5 5 5 4 4 4 4 4 4 4 4
2 2 2 2 2 3 3 4 3 4 3 3 3 2 2 2 2 1 1 2 2 2 2 3 2 2 2 3 3 3 3 3 3 3 2 3 3 3 3 3 3 3 3
2 2 3 2 2 2 4 4 4 3 2 2 3 3 1 1 2 1 1 1 1 1 2 2 2 2 1 1 1 2 2 2 2 2 1 1 1 1 1 1 2 2 2
1 2 3 3 2 3 4 5 5 5 4 2 2 3 3 3 1 1 1 1 1 1 1 1 1 1 1 1 1 1 1 1 1 1 1 1 1 0 1 1 1 1 1
1 1 2 3 3 2 4 5 4 3 5 4 2 1 1 3 3 1 1 1 1 0 0 0 0 1 0 0 1 1 1 2 2 2 2 1 1 1 1 0 1 2 2
1 1 2 2 3 3 3 4 4 4 4 4 3 2 1 1 1 3 2 2 1 1 1 1 1 1 1 1 1 1 2 2 3 3 3 3 3 2 1 2 2 2 3
1 2 2 2 2 3 4 4 4 5 5 5 4 3 3 3 3 3 3 3 2 2 2 2 2 2 2 1 2 2 3 3 4 5 5 4 3 3 2 2 3 3 3
2 3 2 3 3 3 4 4 4 5 6 6 5 4 3 3 3 3 3 3 2 2 2 2 3 2 2 1 2 3 3 4 5 6 6 5 4 4 4 4 4 4 4
3 3 3 3 3 3 3 4 3 5 5 6 6 5 4 3 3 3 4 4 2 2 2 4 2 3 2 2 3 4 3 5 5 6 6 6 5 4 5 5 5 5 5
3 3 3 3 3 3 4 4 3 4 5 5 6 6 5 4 3 3 4 5 5 4 5 4 3 3 3 2 4 3 3 5 6 6 6 6 5 5 5 5 5 5 6
3 3 3 3 3 3 4 4 4 4 5 5 5 6 5 4 4 4 4 4 4 5 5 4 4 3 3 3 5 3 4 7 7 7 7 7 6 6 6 6 6 6 6
3 4 4 3 4 4 3 4 5 5 5 5 5 6 6 5 5 4 4 4 4 4 5 4 3 3 3 3 3 3 3 4 4 7 7 8 7 7 6 6 6 6 7
4 4 4 4 4 4 4 4 5 5 6 7 7 6 7 5 6 5 5 6 5 5 5 6 4 3 4 4 4 3 4 4 3 7 8 8 8 7 7 7 7 7 7
3 4 4 4 5 4 4 5 5 5 6 7 7 7 7 7 7 6 6 6 5 4 5 5 5 3 3 3 3 3 4 3 3 5 6 8 8 8 8 8 8 8 8
3 4 4 4 4 4 5 5 5 5 5 6 7 7 8 8 9 8 7 7 6 5 5 5 5 4 3 3 3 3 3 3 3 3 5 6 7 8 9 9 9 8 9
4 4 4 4 4 4 4 5 5 5 5 5 6 7 8 9 11 9 7 7 7 6 6 5 5 4 4 4 4 4 5 3 3 3 3 4 4 4 5 7 9 9 10
4 3 4 4 5 4 7 8 6 5 5 6 6 6 7 9 11 13 13 12 12 10 9 7 6 7 7 6 5 5 4 3 3 3 3 4 3 4 4 4 9 11 11
4 4 4 4 5 6 9 9 9 5 5 6 6 6 6 7 9 7 10 12 13 15 14 9 9 9 8 8 7 7 6 6 5 3 3 4 3 5 4 6 11 11 11
4 4 5 5 5 6 9 9 10 6 5 6 6 7 7 7 7 8 8 8 8 9 11 8 8 8 7 7 8 8 7 4 2 3 3 4 3 4 4 4 10 11 11
4 4 5 5 5 6 9 9 8 4 4 5 6 6 6 6 9 11 8 8 8 7 9 12 11 9 11 10 7 5 5 4 4 3 3 3 3 3 3 4 6 9 10
5 5 5 4 5 6 9 9 8 4 4 4 5 6 8 8 9 10 7 7 8 7 6 7 7 7 7 8 10 7 6 5 3 3 4 3 2 1 3 3 3 3 4
Wind_Direction
119 112 103 89 90 92 91 88 83 78 74 68 65 67 62 56 47 40 40 59 71 79 84 85 83 84 87 88 85 83 81 80 82 81 80 80 81 81 80 78 77 76 76
127 120 120 108 102 107 99 100 97 88 81 78 70 64 61 57 52 49 43 46 56 67 77 81 82 83 83 85 87 82 82 80 79 78 76 75 79 82 82 79 76 76 75
125 123 127 127 126 111 107 102 92 88 86 80 73 65 59 57 57 52 49 44 40 51 65 76 77 78 80 79 85 86 83 83 80 77 73 73 75 75 76 78 76 75 75
116 126 124 133 139 121 117 119 112 101 93 89 79 62 56 61 58 55 55 50 43 37 50 64 70 71 77 79 77 78 80 80 82 80 73 71 73 73 75 74 72 70 70
114 120 127 133 144 128 123 130 118 119 115 102 90 70 54 59 55 61 62 55 53 48 40 47 52 61 68 74 74 74 84 85 84 84 79 72 70 71 72 71 69 69 71
126 124 120 135 145 138 129 128 127 116 118 117 97 69 43 39 50 57 63 58 59 58 52 51 42 44 56 65 71 72 77 89 85 85 84 78 73 73 74 71 70 70 70
138 140 137 134 156 160 156 145 132 126 114 118 100 72 28 30 49 49 59 75 69 60 59 55 47 41 42 50 61 75 73 76 87 86 92 92 87 77 74 73 71 67 59
155 157 150 155 171 163 157 157 150 138 145 144 133 128 94 10 3 17 50 98 95 67 65 59 52 40 38 30 18 60 69 63 71 68 99 121 111 94 83 73 66 50 45
178 184 174 169 177 176 174 175 173 162 167 188 162 151 159 190 240 331 344 29 92 91 95 71 43 35 40 21 316 345 30 16 15 339 336 191 179 149 80 56 28 356 359
195 197 183 182 181 184 184 185 183 178 168 181 189 183 171 157 160 198 297 311 330 261 242 260 292 308 280 231 281 295 332 321 283 288 298 272 240 245 260 304 360 5 352
207 193 198 194 191 189 192 192 185 184 183 187 185 172 150 139 159 167 218 253 294 275 262 243 235 255 266 237 243 255 276 283 271 275 282 280 261 248 260 289 308 320 321
240 207 201 210 209 203 198 200 198 194 195 191 192 189 181 178 184 178 191 207 235 261 269 252 237 241 240 238 245 262 272 270 270 272 274 278 280 276 271 282 289 293 295
269 238 229 217 218 222 211 201 205 205 200 197 197 202 201 203 187 178 175 192 230 263 260 253 237 237 240 236 248 264 268 271 274 270 269 271 275 279 276 270 272 278 284
250 242 248 241 231 222 221 208 213 216 204 204 207 203 203 210 198 193 183 175 201 257 251 248 250 227 230 233 250 265 252 268 271 270 268 274 280 278 274 267 268 273 279
264 247 241 253 254 233 223 216 220 225 210 209 209 207 208 210 206 204 193 185 182 209 237 230 226 229 227 231 253 254 243 256 263 266 268 274 278 276 268 264 265 271 274
269 254 243 247 255 251 231 219 224 227 216 217 212 209 212 212 207 205 203 205 202 199 224 221 225 231 233 246 252 248 246 258 258 258 259 264 264 264 264 262 261 264 269
269 257 239 238 244 247 245 233 233 222 222 224 218 215 217 211 208 208 208 210 209 198 221 245 241 224 219 231 252 245 247 238 242 252 255 259 258 257 260 260 261 264 268
272 265 248 241 241 245 244 237 242 230 222 226 223 219 221 215 214 211 209 214 213 206 207 229 232 222 223 222 228 239 257 250 238 249 254 256 258 258 257 257 259 263 266
285 272 250 245 245 243 245 243 239 241 234 231 225 223 222 215 217 217 216 217 217 219 209 213 225 221 221 220 219 244 249 243 249 247 250 251 259 263 260 260 261 265 266
279 272 256 251 250 250 252 249 244 242 244 245 234 227 224 219 219 216 217 217 211 213 211 211 217 216 214 209 202 215 241 229 243 251 246 253 263 264 261 261 261 266 266
288 280 264 257 256 249 249 249 245 243 240 246 246 236 232 230 229 225 221 214 207 210 211 212 217 220 216 206 210 211 228 233 245 229 235 250 255 250 248 257 261 262 263
302 295 283 262 257 260 267 264 260 249 245 242 247 244 240 237 236 238 235 227 215 210 208 209 217 220 223 216 211 214 212 214 239 213 214 253 240 245 245 241 255 263 258
301 295 284 275 262 262 267 268 268 261 250 247 246 245 245 242 239 229 234 236 233 229 222 211 212 220 217 206 201 208 209 213 231 215 207 249 238 246 247 251 259 262 259
294 289 285 279 274 269 271 271 272 262 254 252 250 248 243 242 236 229 224 225 227 227 229 225 215 218 217 202 201 205 207 216 232 219 203 237 238 245 258 251 256 260 265
296 290 287 285 284 281 275 275 277 261 257 257 256 257 250 239 242 242 227 219 223 229 236 237 235 230 225 221 207 182 184 194 222 223 202 218 244 259 259 252 255 259 264
296 295 294 290 284 284 281 277 276 256 256 260 262 261 255 250 244 245 228 211 219 222 216 222 230 232 221 212 210 198 188 195 204 222 201 199 222 242 272 259 256 266 265